Weather History for Houghton, MI

Change the Weather History Date:

Thursday, November 28, 2013

  Actual Average Record
Temperature  
Mean Temperature 20 °F -  
Max Temperature 25 °F 30 °F 49 °F (1962)
Min Temperature 15 °F 20 °F 1 °F (1976)
Degree Days  
Heating Degree Days 45    
Moisture  
Dew Point 14 °F    
Average Humidity 77    
Maximum Humidity 86    
Minimum Humidity 60    
Precipitation  
Precipitation 0.01 in - - ()
Sea Level Pressure  
Sea Level Pressure 30.27 in    
Wind  
Wind Speed 4 mph (NE)    
Max Wind Speed 10 mph    
Max Gust Speed -    
Visibility 6 miles    
Events Fog , Snow    
Averages and records for this station are not official NWS values.
T = Trace of Precipitation, MM = Missing Value Source: NWS Daily Summary

Daily Weather History Graph

Daily Weather History Graph

Search for Another Location

Airport:

Trip Planner

Search our weather history database for the weather conditions in past years. The results will help you decide how hot, cold, wet, or windy it might be!

Date:

Astronomy

Nov. 28, 2013 Rise Set
Actual Time 8:16 AM EST 5:07 PM EST
Civil Twilight 7:41 AM EST 5:42 PM EST
Nautical Twilight 7:03 AM EST 6:20 PM EST
Astronomical Twilight 6:26 AM EST 6:56 PM EST
Moon 3:01 AM EST (11/28) 2:32 PM EST (11/28)
Length of Visible Light 10h 00m
Length of Day
8h 51m
Waning Crescent, 22% of the Moon is Illuminated
Nov 28
Waning Crescent
Dec 2
New
Dec 9
First Quarter
Dec 17
Full
Dec 25
Last Quarter

Hourly Weather History & Observations

Time (EST) Temp. Windchill Dew Point Humidity Pressure Visibility Wind Dir Wind Speed Gust Speed Precip Events Conditions
12:53 AM 15.1 °F - 10.0 °F 80% 30.19 in 10.0 mi Calm Calm - N/A   Overcast
1:53 AM 16.0 °F - 10.0 °F 77% 30.18 in 9.0 mi Calm Calm - 0.00 in   Overcast
2:53 AM 17.1 °F - 10.9 °F 77% 30.18 in 10.0 mi Calm Calm - N/A   Overcast
3:53 AM 17.1 °F - 12.0 °F 81% 30.18 in 6.0 mi Calm Calm - 0.00 in Snow Light Snow
4:53 AM 17.1 °F - 12.0 °F 81% 30.18 in 7.0 mi Calm Calm - 0.00 in Snow Light Snow
5:53 AM 18.0 °F 12.7 °F 12.9 °F 81% 30.18 in 5.0 mi SW 3.5 mph - 0.00 in Snow Light Snow
6:53 AM 18.0 °F - 14.0 °F 84% 30.19 in 5.0 mi Calm Calm - 0.00 in Snow Light Snow
7:53 AM 17.1 °F - 12.9 °F 84% 30.20 in 7.0 mi Calm Calm - 0.00 in Snow Light Snow
8:53 AM 17.1 °F - 12.9 °F 84% 30.21 in 10.0 mi Calm Calm - 0.00 in   Mostly Cloudy
9:53 AM 17.1 °F 11.7 °F 12.9 °F 84% 30.22 in 10.0 mi SSW 3.5 mph - N/A   Mostly Cloudy
10:53 AM 19.9 °F 13.4 °F 14.0 °F 78% 30.24 in 10.0 mi South 4.6 mph - N/A   Scattered Clouds
11:53 AM 21.0 °F 16.2 °F 12.9 °F 71% 30.24 in 10.0 mi West 3.5 mph - N/A   Clear
12:53 PM 24.1 °F - 12.9 °F 62% 30.24 in 10.0 mi Calm Calm - N/A   Clear
1:53 PM 25.0 °F - 12.9 °F 60% 30.25 in 10.0 mi Calm Calm - N/A   Clear
2:48 PM 24.8 °F 17.9 °F 15.8 °F 69% 30.21 in 2.0 mi NE 5.8 mph - 0.01 in Snow Light Snow
2:53 PM 25.0 °F 16.3 °F 15.1 °F 66% 30.27 in 2.0 mi NE 8.1 mph - 0.01 in Snow Light Snow
2:57 PM 24.8 °F 16.9 °F 15.8 °F 69% 30.21 in 3.0 mi NNE 6.9 mph - 0.00 in Snow Light Snow
3:51 PM 24.8 °F 15.3 °F 17.6 °F 74% 30.24 in 1.8 mi ENE 9.2 mph - 0.00 in Snow Light Snow
3:53 PM 24.1 °F 14.4 °F 17.1 °F 75% 30.30 in 1.2 mi NE 9.2 mph - 0.00 in Snow Light Snow
4:02 PM 23.0 °F 13.1 °F 17.6 °F 80% 30.24 in 0.5 mi NE 9.2 mph - 0.00 in Snow Snow
4:04 PM 23.0 °F 12.4 °F 17.6 °F 80% 30.24 in 0.2 mi NE 10.4 mph - 0.00 in Snow Heavy Snow
4:20 PM 23.0 °F 12.4 °F 17.6 °F 80% 30.25 in 0.5 mi NNE 10.4 mph - 0.00 in Snow Snow
4:32 PM 21.2 °F 10.1 °F 17.6 °F 86% 30.25 in 1.0 mi NNE 10.4 mph - 0.00 in Snow Light Snow
4:46 PM 21.2 °F 11.7 °F 17.6 °F 86% 30.26 in 0.5 mi NE 8.1 mph - 0.00 in Snow Snow
4:53 PM 21.9 °F 13.4 °F 18.0 °F 85% 30.32 in 0.5 mi NE 6.9 mph - 0.00 in Fog , Snow Snow
5:11 PM 21.2 °F 10.9 °F 17.6 °F 86% 30.27 in 0.8 mi ENE 9.2 mph - 0.00 in Snow Light Snow
5:19 PM 21.2 °F 11.7 °F 17.6 °F 86% 30.27 in 0.8 mi NE 8.1 mph - 0.00 in Snow Light Snow
5:31 PM 21.2 °F 10.9 °F 17.6 °F 86% 30.28 in 1.2 mi ENE 9.2 mph - 0.00 in Snow Light Snow
5:42 PM 21.2 °F 11.7 °F 17.6 °F 86% 30.28 in 2.5 mi NE 8.1 mph - 0.00 in Snow Light Snow
5:53 PM 21.9 °F 13.4 °F 16.0 °F 78% 30.35 in 5.0 mi NE 6.9 mph - 0.00 in Snow Light Snow
6:10 PM 21.2 °F 12.6 °F 15.8 °F 80% 30.30 in 10.0 mi NE 6.9 mph - 0.00 in   Overcast
6:53 PM 19.0 °F 8.2 °F 12.9 °F 77% 30.38 in 10.0 mi NE 9.2 mph - 0.00 in   Clear
7:53 PM 19.0 °F 7.5 °F 12.0 °F 74% 30.40 in 10.0 mi NE 10.4 mph - N/A   Clear
8:53 PM 18.0 °F 6.9 °F 10.9 °F 74% 30.42 in 10.0 mi NE 9.2 mph - N/A   Partly Cloudy
9:53 PM 18.0 °F 7.7 °F 10.0 °F 71% 30.43 in 10.0 mi NE 8.1 mph - N/A   Mostly Cloudy
10:53 PM 18.0 °F 9.8 °F 9.0 °F 68% 30.45 in 10.0 mi NE 5.8 mph - N/A   Overcast
11:53 PM 19.9 °F 12.1 °F 10.0 °F 65% 30.47 in 10.0 mi ENE 5.8 mph - N/A   Overcast